Vorticity
nan nan nan nan nan nan nan nan nan nan nan nan nan nan nan nan nan nan nan nan nan nan nan nan nan nan nan nan nan nan nan nan nan nan nan nan nan nan nan nan nan nan nan nan nan nan nan
nan 9 7 7 7 6 7 6 6 6 7 6 7 7 5 4 27 28 6 5 6 8 7 11 13 7 4 3 13 9 5 5 8 6 9 9 6 8 10 11 13 10 11 9 8 8 nan
nan 8 9 8 9 7 7 7 6 6 6 6 5 6 5 8 25 27 8 6 8 8 9 9 9 8 4 9 5 4 5 6 11 10 11 18 15 6 8 9 11 15 12 14 14 11 nan
nan 8 9 9 9 9 8 8 7 6 6 7 5 6 7 6 25 31 9 7 7 9 9 9 10 7 4 10 7 7 8 9 11 9 9 18 19 6 2 7 5 12 16 14 19 18 nan
nan 7 8 8 8 9 9 8 8 7 7 6 5 6 8 5 23 29 8 6 9 11 12 9 8 5 7 10 11 11 10 9 7 8 10 9 6 6 8 6 9 6 11 17 19 13 nan
nan 10 10 10 8 7 8 9 9 9 7 7 6 5 7 6 22 21 6 7 9 9 6 5 6 9 11 9 9 9 10 9 8 9 10 5 5 7 7 6 1 7 10 10 17 16 nan
nan 9 8 10 10 10 9 9 8 9 9 8 7 6 7 7 28 19 3 4 5 8 7 5 3 4 8 9 10 8 8 11 10 6 6 7 9 10 8 5 3 1 7 10 14 18 nan
nan 9 8 8 10 9 8 7 9 9 9 9 8 5 6 27 35 3 2 6 8 10 12 11 6 4 6 9 9 9 8 10 8 9 9 6 5 9 11 14 13 11 11 5 9 10 nan
nan 8 8 9 9 9 10 8 8 8 9 12 10 5 11 23 12 5 8 10 7 7 10 15 11 9 11 8 7 9 8 9 9 10 7 3 8 13 17 18 10 15 11 3 9 6 nan
nan 8 9 8 8 10 12 9 8 10 9 14 11 7 9 12 7 8 9 9 6 7 11 12 10 11 10 7 10 8 8 10 9 7 8 10 9 9 13 11 14 15 13 9 2 2 nan
nan 8 9 10 10 10 11 10 7 11 10 17 16 10 9 10 10 11 11 10 7 7 12 8 8 9 10 6 10 10 7 9 8 9 9 7 9 9 9 9 10 10 18 10 2 8 nan
nan 10 9 10 10 11 14 9 20 18 13 16 17 9 8 10 8 12 9 8 7 7 11 9 9 8 7 9 7 8 9 6 9 9 11 8 8 8 8 8 10 16 17 8 7 9 nan
nan 12 10 9 11 10 11 10 19 16 23 18 13 9 6 5 12 11 6 6 7 10 10 10 9 10 9 10 10 8 10 8 8 10 7 8 8 11 9 10 12 18 6 2 9 8 nan
nan 11 11 11 10 12 11 25 21 14 17 18 14 10 9 10 11 6 6 8 10 12 9 8 13 10 9 8 7 11 9 9 8 8 8 9 8 7 10 10 7 9 6 9 14 11 nan
nan 11 11 14 15 19 25 23 14 18 20 17 10 10 12 14 11 5 5 7 11 10 11 11 6 5 9 8 8 8 7 9 11 8 6 12 8 8 11 9 8 6 7 11 8 8 nan
nan 10 13 16 16 27 27 13 12 17 13 8 10 10 12 19 10 2 6 11 8 6 9 8 6 10 12 10 8 8 8 9 9 11 7 9 5 8 10 14 11 5 13 12 7 7 nan
nan 12 19 17 18 26 17 13 15 17 8 5 8 7 14 16 6 6 8 11 8 8 12 7 8 13 10 10 9 10 10 9 7 10 8 9 11 11 9 6 9 13 11 10 8 10 nan
nan 14 18 16 16 14 14 17 19 15 4 5 10 9 16 9 5 11 11 8 7 14 13 9 9 10 9 8 9 10 9 8 9 7 9 11 12 10 11 9 9 8 8 11 11 10 nan
nan 14 14 14 12 11 16 12 16 12 6 8 9 13 10 4 9 11 9 7 8 14 9 8 10 10 12 10 8 9 9 8 11 10 12 10 12 11 11 12 7 6 10 12 12 9 nan
nan 10 11 13 12 12 9 5 11 10 4 6 9 10 9 10 11 13 8 9 10 10 9 10 11 12 10 7 12 12 7 8 12 9 10 10 8 10 12 11 11 8 8 12 13 12 nan
nan 10 10 8 8 8 10 16 12 3 0 2 9 10 12 12 13 11 7 8 9 9 9 10 12 12 8 8 9 9 9 7 8 10 9 11 9 8 8 10 13 11 8 11 13 11 nan
nan 9 8 8 10 11 10 17 39 41 6 -2 10 7 9 12 12 8 9 10 8 9 13 11 9 11 11 8 12 16 9 9 9 9 9 12 11 7 4 7 12 11 8 8 9 11 nan
nan 9 9 9 8 10 13 16 50 43 -2 1 7 9 10 10 9 8 8 10 12 6 8 11 13 8 8 12 16 14 13 15 14 12 8 12 11 7 6 6 12 9 7 10 9 9 nan
nan 9 9 9 9 11 15 19 26 8 -1 8 10 10 11 11 13 9 7 7 9 12 8 8 12 10 10 11 8 4 8 7 8 11 15 12 7 11 9 10 10 7 7 10 9 10 nan
nan 9 8 10 16 20 18 21 14 11 11 9 11 9 10 12 13 11 10 9 6 9 11 9 10 16 9 4 9 5 5 3 2 7 13 14 12 10 10 9 9 13 11 10 8 8 nan
nan 9 9 15 31 34 29 22 9 7 8 8 10 11 14 11 6 10 13 9 10 8 9 9 11 11 8 10 11 11 9 9 9 5 7 12 11 9 12 10 7 10 14 10 12 14 nan
nan 9 11 26 35 30 25 14 7 4 6 9 6 13 13 10 8 11 11 10 9 8 10 12 10 9 11 11 10 11 9 11 12 10 8 5 7 11 8 8 11 12 11 9 12 15 nan
nan 10 18 31 18 13 11 10 10 7 5 8 8 10 13 11 11 11 11 12 10 9 10 11 9 9 11 11 10 11 10 11 9 11 14 10 7 9 8 11 14 11 7 8 11 14 nan
nan nan nan nan nan nan nan nan nan nan nan nan nan nan nan nan nan nan nan nan nan nan nan nan nan nan nan nan nan nan nan nan nan nan nan nan nan nan nan nan nan nan nan nan nan nan nan
CAPE
44 31 44 50 54 47 33 36 26 23 27 26 16 17 12 13 25 30 8 8 4 3 2 0 1 7 0 0 0 0 0 0 0 0 1 6 27 18 34 17 24 11 0 1 1 0 26
34 24 49 54 59 68 56 35 30 30 25 24 24 19 12 8 13 46 7 10 13 0 0 0 3 1 1 0 0 0 0 0 0 0 1 10 15 12 23 40 44 12 16 5 2 3 65
33 39 48 66 77 65 68 64 57 42 29 32 21 16 11 3 9 61 13 17 25 0 0 7 12 16 0 0 0 0 0 0 0 5 16 21 22 13 18 22 26 26 23 30 63 15 100
41 53 56 58 60 73 79 72 63 68 59 33 21 11 10 2 6 86 12 17 0 0 5 12 15 2 4 0 0 0 0 0 28 7 0 16 4 9 23 20 18 0 24 31 25 62 103
40 57 72 81 78 70 78 84 70 61 54 46 16 6 6 0 7 14 11 6 1 4 21 26 8 0 0 0 0 0 0 0 28 20 24 10 16 28 30 23 4 4 127 38 93 97 159
48 74 74 77 74 96 92 92 100 86 72 63 4 2 3 0 11 16 0 19 8 18 17 22 2 1 0 0 0 0 0 0 9 6 31 34 35 41 20 13 1 48 114 93 97 143 121
54 56 65 77 88 93 106 107 104 108 94 74 16 0 1 5 36 4 6 0 0 4 4 0 0 0 0 0 0 0 0 4 21 44 26 8 23 3 14 4 0 2 44 85 104 114 90
47 50 72 71 77 88 108 100 104 96 91 85 31 2 1 10 121 5 0 0 0 0 0 0 0 0 0 0 0 0 0 6 2 18 17 16 8 16 8 10 7 14 48 92 118 47 16
39 43 52 74 89 109 119 120 102 98 118 111 35 12 0 97 35 16 1 3 0 0 0 0 0 0 0 0 0 0 0 0 0 5 12 14 4 1 21 13 33 100 19 68 29 15 4
25 36 47 78 104 116 124 124 121 133 140 190 60 19 3 90 9 3 7 1 0 0 3 0 6 2 0 0 0 0 0 0 0 2 0 5 4 19 18 9 80 45 15 62 13 28 52
19 22 48 86 134 128 115 146 173 157 76 84 102 58 30 22 71 11 0 0 5 0 4 1 0 0 2 0 0 0 0 0 0 1 10 12 30 36 6 18 27 48 73 43 16 16 36
20 52 121 139 152 131 144 201 178 3 13 49 56 52 40 107 69 15 0 0 0 13 3 15 3 6 15 2 18 0 0 0 0 3 8 13 1 10 33 11 20 89 57 70 73 33 29
45 61 129 162 161 192 254 316 114 61 1 47 67 70 58 39 47 0 0 9 25 9 0 14 3 7 6 26 19 0 0 0 9 105 45 2 7 1 18 8 24 9 62 43 36 44 13
30 107 137 227 189 287 197 106 50 117 59 64 63 65 64 36 79 4 2 13 9 0 0 0 2 10 8 12 3 1 0 0 0 3 7 4 12 3 0 19 7 2 8 21 3 12 11
67 97 224 96 203 254 209 72 75 46 82 47 59 154 142 102 52 32 7 42 12 0 0 8 17 10 21 10 11 6 0 0 0 3 25 8 32 6 7 26 7 11 0 0 1 5 10
75 184 292 238 117 207 47 0 76 42 95 41 144 59 5 99 56 11 31 18 6 0 0 0 1 9 8 5 6 1 0 0 11 0 0 6 26 6 13 6 1 1 0 0 0 1 8
70 155 186 247 134 141 62 83 81 101 75 0 40 33 11 77 38 6 33 17 1 0 0 0 0 1 0 4 1 0 0 0 0 4 0 0 1 12 0 4 3 0 0 0 0 0 1
50 79 75 85 71 84 70 88 70 73 2 0 16 34 30 29 3 7 14 5 2 0 0 9 0 0 0 0 0 0 0 0 0 0 0 0 0 7 0 0 0 0 0 0 0 0 0
44 71 53 52 58 32 45 29 47 48 3 9 15 21 48 28 33 55 8 5 1 0 6 30 18 0 0 0 2 2 0 0 0 0 0 0 0 11 5 0 0 0 0 0 0 0 0
35 38 64 67 72 31 32 4 5 32 5 7 5 8 19 19 5 1 24 15 2 1 1 3 0 0 0 0 0 0 0 0 0 0 0 0 0 0 0 0 0 0 0 0 0 4 0
30 28 32 24 57 39 36 31 30 5 10 4 8 6 5 24 18 7 9 12 0 7 0 0 1 0 0 0 0 0 0 0 0 0 0 0 0 0 0 0 0 0 0 0 0 0 0
24 20 17 23 32 30 22 15 31 47 16 25 4 19 7 20 4 8 11 13 0 2 9 0 7 1 0 0 0 0 0 0 0 0 0 0 0 0 0 0 0 0 0 0 0 0 0
22 15 17 18 16 19 44 66 22 17 15 15 0 0 0 9 7 14 1 0 0 1 0 0 0 1 0 0 0 0 0 0 0 0 0 0 0 0 0 0 0 0 0 0 0 0 0
13 6 7 9 13 10 17 52 47 17 6 0 0 0 0 10 4 3 0 0 0 0 1 0 0 4 0 0 0 0 0 0 0 0 0 0 0 0 0 0 0 0 0 0 0 0 0
5 6 5 5 6 9 7 12 5 0 0 0 0 0 0 2 5 2 0 0 0 0 0 0 0 0 0 0 0 0 0 0 0 0 0 0 0 0 0 0 0 0 0 0 0 0 0
7 4 2 7 18 6 3 2 0 0 0 0 0 0 0 0 0 0 4 0 0 0 0 1 0 0 0 0 0 0 0 0 0 0 0 0 0 0 0 0 0 0 0 0 0 0 0
4 2 2 7 13 0 1 1 0 0 0 0 0 0 0 0 0 0 7 2 0 0 1 0 0 0 0 0 0 0 0 0 0 0 6 1 1 0 0 0 0 0 0 0 0 0 0
1 1 2 8 3 2 3 0 0 0 0 0 0 0 0 0 0 0 0 0 0 0 1 0 0 1 0 4 0 0 0 0 0 0 0 1 1 1 0 0 0 0 0 0 0 0 0
0 0 2 6 0 0 0 0 0 0 0 0 0 0 0 0 0 0 0 0 0 0 0 0 0 0 0 0 0 0 0 0 0 0 0 0 0 0 0 0 0 0 0 0 0 0 0